FW2834 Weather Reports


Display with metric or nautical units.
time (UTC)temp
F
wind
direction
speed
MPH
gust
MPH
rain 1hr
in
rain 24hr
in
rain mn
in
humidity
%
barometer
mb
20260509185556 75 174 1.0 6.0 0.00 0.15 0.15 44 1007.3
20260509185055 74 344 0.0 5.0 0.00 0.15 0.15 50 1007.3
20260509184554 74 211 1.0 4.0 0.00 0.15 0.15 48 1007.3
20260509184055 74 275 0.0 5.0 0.00 0.15 0.15 47 1007.4
20260509183553 73 288 1.0 5.0 0.00 0.15 0.15 48 1007.5
20260509183052 73 232 1.0 9.0 0.00 0.15 0.15 53 1007.4
20260509182552 74 251 0.0 3.0 0.00 0.15 0.15 51 1007.5
20260509182052 74 269 1.0 3.0 0.00 0.15 0.15 50 1007.3
20260509181556 74 305 0.0 3.0 0.00 0.15 0.15 51 1007.4
20260509181051 73 345 0.0 4.0 0.00 0.15 0.15 51 1007.5
20260509180550 73 348 0.0 4.0 0.00 0.15 0.15 53 1007.5
20260509180053 72 267 1.0 4.0 0.00 0.15 0.15 52 1007.5
20260509175547 72 293 1.0 4.0 0.00 0.15 0.15 50 1007.4
20260509175050 72 302 0.0 7.0 0.00 0.15 0.15 55 1007.5
20260509174545 71 301 1.0 7.0 0.00 0.15 0.15 57 1007.5
20260509174044 71 167 0.0 4.0 0.00 0.15 0.15 58 1007.6
20260509173542 71 192 0.0 4.0 0.00 0.15 0.15 60 1007.5
20260509173042 70 309 1.0 3.0 0.00 0.15 0.15 57 1007.6
20260509172541 70 286 1.0 5.0 0.00 0.15 0.15 59 1007.6
20260509172041 70 325 1.0 5.0 0.00 0.15 0.15 60 1007.5
20260509171546 70 292 0.0 3.0 0.00 0.15 0.15 58 1007.5
20260509171040 70 279 1.0 2.0 0.00 0.15 0.15 61 1007.5
20260509170539 70 278 0.0 3.0 0.00 0.15 0.15 60 1007.5
20260509170039 70 284 0.0 3.0 0.00 0.15 0.15 58 1007.6
20260509165538 69 299 0.0 4.0 0.00 0.15 0.15 62 1007.7
20260509165041 69 209 1.0 4.0 0.00 0.15 0.15 61 1007.7
20260509164546 69 329 0.0 3.0 0.00 0.15 0.15 61 1007.8
20260509164039 69 244 0.0 3.0 0.00 0.15 0.15 60 1007.8
20260509163538 69 281 0.0 3.0 0.00 0.15 0.15 61 1007.8
20260509163038 69 329 0.0 0.0 0.00 0.15 0.15 59 1007.7
20260509162535 69 289 0.0 6.0 0.00 0.15 0.15 61 1007.7
20260509162034 69 309 0.0 8.0 0.00 0.15 0.15 62 1007.7
20260509161536 68 118 2.0 8.0 0.00 0.15 0.15 60 1007.7
20260509161033 68 348 1.0 6.0 0.00 0.15 0.15 62 1007.6
20260509160531 68 88 0.0 3.0 0.00 0.15 0.15 64 1007.6
20260509160030 67 124 0.0 5.0 0.00 0.15 0.15 66 1007.6
20260509155528 67 141 2.0 5.0 0.00 0.15 0.15 64 1007.6
20260509155027 66 342 1.0 4.0 0.00 0.15 0.15 68 1007.6
20260509154527 66 69 1.0 5.0 0.00 0.15 0.15 67 1007.6
20260509154025 66 53 1.0 5.0 0.00 0.15 0.15 68 1007.5
20260509153523 65 194 1.0 9.0 0.00 0.15 0.15 68 1007.5
20260509153023 65 122 3.0 9.0 0.00 0.15 0.15 67 1007.5
20260509152520 64 47 0.0 7.0 0.00 0.15 0.15 68 1007.4
20260509152019 64 192 1.0 7.0 0.00 0.15 0.15 68 1007.3
20260509151516 64 125 2.0 7.0 0.00 0.15 0.15 71 1007.3
20260509151015 63 81 2.0 7.0 0.00 0.15 0.15 71 1007.3
20260509150514 63 117 1.0 7.0 0.00 0.15 0.15 73 1007.2
20260509150018 62 103 2.0 7.0 0.00 0.15 0.15 75 1007.3
20260509145513 62 61 1.0 5.0 0.00 0.15 0.15 77 1007.3
20260509145011 61 39 1.0 6.0 0.00 0.15 0.15 79 1007.2
20260509144509 60 110 1.0 10.0 0.00 0.15 0.15 80 1007.2
20260509144012 60 174 3.0 10.0 0.00 0.15 0.15 82 1007.1
20260509143506 59 88 1.0 8.0 0.00 0.15 0.15 86 1007.2
20260509143004 59 136 0.0 4.0 0.00 0.15 0.15 89 1007.1
20260509142503 59 355 0.0 4.0 0.00 0.15 0.15 89 1007.1
20260509142002 58 111 0.0 5.0 0.00 0.15 0.15 89 1007.0
20260509141600 58 139 3.0 8.0 0.00 0.15 0.15 89 1007.0
20260509141100 58 127 1.0 8.0 0.00 0.15 0.15 89 1007.0
20260509140557 57 142 0.0 3.0 0.00 0.15 0.15 89 1007.1
20260509140103 57 115 0.0 4.0 0.00 0.15 0.15 88 1007.2
20260509135555 57 101 0.0 3.0 0.00 0.15 0.15 88 1007.2
20260509135056 56 159 1.0 3.0 0.00 0.15 0.15 88 1007.2
20260509134626 56 128 1.0 4.0 0.00 0.15 0.15 88 1007.1
20260509134059 56 132 1.0 4.0 0.00 0.15 0.15 88 1007.2
20260509133557 56 135 0.0 2.0 0.00 0.15 0.15 87 1007.1
20260509133057 55 135 0.0 2.0 0.00 0.15 0.15 87 1007.1
20260509132550 55 135 0.0 2.0 0.00 0.15 0.15 86 1007.1
20260509132049 55 135 0.0 2.0 0.00 0.15 0.15 86 1007.0
20260509131553 55 135 0.0 3.0 0.00 0.15 0.15 86 1006.8
20260509131048 55 136 1.0 3.0 0.00 0.15 0.15 86 1006.9
20260509130548 55 167 0.0 3.0 0.00 0.15 0.15 86 1006.9
20260509130048 55 167 0.0 3.0 0.00 0.15 0.15 86 1006.9
20260509125547 55 198 0.0 2.0 0.00 0.15 0.15 86 1007.0
20260509125046 55 199 0.0 2.0 0.00 0.15 0.15 86 1007.1
20260509124547 55 200 0.0 1.0 0.00 0.15 0.15 85 1007.1
20260509124048 54 200 0.0 1.0 0.00 0.15 0.15 85 1007.0
20260509123549 54 200 0.0 1.0 0.00 0.15 0.15 85 1006.9
20260509123044 54 200 0.0 0.0 0.00 0.15 0.15 84 1007.1
20260509122543 54 200 0.0 1.0 0.00 0.15 0.15 84 1007.1
20260509122043 54 200 0.0 1.0 0.00 0.15 0.15 84 1007.2
20260509121546 54 200 0.0 0.0 0.00 0.15 0.15 84 1007.2
20260509121048 54 200 0.0 0.0 0.00 0.15 0.15 84 1007.2
20260509120540 54 200 0.0 0.0 0.00 0.15 0.15 84 1007.1
20260509120041 54 200 0.0 2.0 0.01 0.15 0.15 84 1007.0
20260509115538 54 200 0.0 2.0 0.01 0.15 0.15 83 1007.0
20260509115038 54 204 0.0 1.0 0.01 0.15 0.15 83 1007.0
20260509114543 54 204 0.0 1.0 0.01 0.15 0.15 83 1007.1
20260509114037 54 204 0.0 3.0 0.01 0.15 0.15 83 1007.1
20260509113537 54 204 0.0 3.0 0.01 0.15 0.15 82 1007.1
20260509113039 54 207 0.0 4.0 0.01 0.15 0.15 82 1007.2
20260509112535 54 111 0.0 4.0 0.02 0.15 0.15 82 1007.0
20260509112034 54 132 0.0 4.0 0.03 0.15 0.15 81 1007.2
20260509111535 54 136 1.0 4.0 0.04 0.15 0.15 81 1007.2
20260509111035 54 341 0.0 1.0 0.04 0.15 0.15 80 1007.3
20260509110536 54 341 0.0 1.0 0.04 0.15 0.15 80 1006.9
20260509110033 54 341 0.0 0.0 0.04 0.14 0.14 80 1006.8
20260509105534 54 341 0.0 0.0 0.04 0.14 0.14 80 1006.9
20260509105033 54 341 0.0 0.0 0.04 0.14 0.14 80 1007.1
20260509104532 54 341 0.0 1.0 0.04 0.14 0.14 80 1007.2
20260509104032 54 341 0.0 1.0 0.05 0.14 0.14 79 1007.3
20260509103533 54 341 0.0 0.0 0.05 0.14 0.14 79 1007.5
20260509103031 54 341 0.0 0.0 0.04 0.13 0.13 79 1007.5
20260509102534 54 341 0.0 0.0 0.04 0.13 0.13 79 1007.6
20260509102032 54 341 0.0 0.0 0.03 0.12 0.12 79 1007.6
20260509101538 54 341 0.0 0.0 0.03 0.11 0.11 79 1007.6
20260509101029 54 341 0.0 0.0 0.03 0.11 0.11 79 1007.6
20260509100530 54 341 0.0 0.0 0.02 0.10 0.10 79 1007.6
20260509100029 54 341 0.0 0.0 0.03 0.10 0.10 79 1007.5
20260509095529 54 341 0.0 0.0 0.03 0.10 0.10 79 1007.6
20260509095029 54 341 0.0 0.0 0.03 0.10 0.10 79 1007.7
20260509094530 54 341 0.0 0.0 0.03 0.10 0.10 79 1007.6
20260509094028 54 341 0.0 0.0 0.03 0.09 0.09 79 1007.3
20260509093528 54 341 0.0 0.0 0.03 0.09 0.09 79 1007.3
20260509093028 54 341 0.0 1.0 0.04 0.09 0.09 78 1007.3
20260509092526 54 341 0.0 1.0 0.05 0.09 0.09 78 1007.3
20260509092028 54 337 0.0 1.0 0.05 0.09 0.09 78 1007.4
20260509091524 54 337 0.0 1.0 0.04 0.08 0.08 78 1007.6
20260509091023 54 337 0.0 1.0 0.05 0.08 0.08 77 1007.9
20260509090523 54 337 0.0 0.0 0.05 0.08 0.08 77 1008.1
20260509090122 54 337 0.0 0.0 0.04 0.07 0.07 77 1008.3
20260509085522 54 337 0.0 0.0 0.04 0.07 0.07 77 1008.2
20260509085022 54 337 0.0 1.0 0.04 0.07 0.07 77 1008.2
20260509084522 54 337 0.0 0.0 0.05 0.07 0.07 77 1008.3
20260509084021 54 337 0.0 1.0 0.04 0.06 0.06 77 1008.2
20260509083520 54 337 0.0 1.0 0.04 0.06 0.06 76 1008.3
20260509083021 55 337 0.0 1.0 0.03 0.05 0.05 76 1008.4
20260509082519 54 337 0.0 1.0 0.02 0.04 0.04 76 1008.5
20260509082020 54 337 0.0 0.0 0.02 0.04 0.04 76 1008.4
20260509081519 55 337 0.0 0.0 0.02 0.04 0.04 75 1008.3
20260509081019 55 337 0.0 0.0 0.02 0.03 0.03 75 1008.4
20260509080519 55 337 0.0 1.0 0.02 0.03 0.03 75 1008.2
20260509080019 55 337 0.0 0.0 0.02 0.03 0.03 75 1008.3
20260509075518 55 337 0.0 0.0 0.02 0.03 0.03 74 1008.4
20260509075018 55 337 0.0 0.0 0.02 0.03 0.03 74 1008.4
20260509074518 55 337 0.0 0.0 0.01 0.02 0.02 74 1008.3
20260509074017 55 337 0.0 0.0 0.01 0.02 0.02 74 1008.1
20260509073517 55 337 0.0 0.0 0.01 0.02 0.02 73 1008.0
20260509073016 55 337 0.0 0.0 0.02 0.02 0.02 73 1008.3
20260509072515 55 337 0.0 0.0 0.02 0.02 0.02 73 1008.4
20260509072013 55 337 0.0 0.0 0.02 0.02 0.02 72 1008.6
20260509071514 55 337 0.0 0.0 0.02 0.02 0.02 72 1008.5
20260509071013 55 337 0.0 0.0 0.01 0.01 0.01 72 1008.6
20260509070517 55 337 0.0 0.0 0.01 0.01 0.01 72 1008.6
20260509070014 55 337 0.0 0.0 0.01 0.01 0.01 72 1008.6
20260509065512 55 337 0.0 0.0 0.01 0.01 0.01 71 1008.7
20260509065012 55 337 0.0 0.0 0.01 0.01 0.01 71 1008.8
20260509064513 55 337 0.0 0.0 0.01 0.01 0.01 71 1008.8
20260509064012 55 337 0.0 0.0 0.01 0.01 0.01 71 1008.9
20260509063511 55 337 0.0 0.0 0.01 0.01 0.01 71 1008.9
20260509063011 55 337 0.0 0.0 0.00 0.00 0.00 71 1008.9
20260509062511 55 337 0.0 0.0 0.00 0.00 0.00 71 1008.8
20260509062016 55 337 0.0 1.0 0.00 0.00 0.00 71 1008.7
20260509061510 55 337 0.0 2.0 0.00 0.00 0.00 71 1008.8
20260509061011 55 337 0.0 2.0 0.00 0.00 0.00 71 1008.6
20260509060509 55 337 0.0 0.0 0.00 0.00 0.00 70 1008.6
20260509060008 55 337 0.0 0.0 0.00 0.00 0.00 70 1008.7
20260509055508 55 337 0.0 0.0 0.00 0.00 0.00 70 1008.7
20260509055010 55 337 0.0 0.0 0.00 0.00 0.00 70 1008.6
20260509054507 55 337 0.0 0.0 0.00 0.00 0.00 70 1008.7
20260509054006 56 337 0.0 0.0 0.00 0.00 0.00 70 1008.8
20260509053507 56 337 0.0 0.0 0.00 0.00 0.00 70 1008.7
20260509053007 56 337 0.0 0.0 0.00 0.00 0.00 70 1008.8
20260509052506 56 337 0.0 0.0 0.00 0.00 0.00 70 1008.7
20260509052005 56 337 0.0 0.0 0.00 0.00 0.00 70 1008.8
20260509051505 56 337 0.0 0.0 0.00 0.00 0.00 69 1008.9
20260509051004 56 337 0.0 0.0 0.00 0.00 0.00 69 1009.0
20260509050504 56 337 0.0 0.0 0.00 0.00 0.00 68 1009.0
20260509050004 56 337 0.0 0.0 0.00 0.00 0.00 68 1008.9
20260509045505 56 337 0.0 0.0 0.00 0.00 0.00 68 1008.9
20260509045002 56 337 0.0 0.0 0.00 0.00 0.00 68 1009.0
20260509044501 56 337 0.0 0.0 0.00 0.00 0.00 68 1009.1
20260509044001 56 337 0.0 0.0 0.00 0.00 0.00 68 1009.1
20260509043501 57 337 0.0 0.0 0.00 0.00 0.00 68 1009.1
20260509043106 57 337 0.0 0.0 0.00 0.00 0.00 67 1009.1
20260509042600 57 337 0.0 0.0 0.00 0.00 0.00 67 1009.0
20260509042101 57 337 0.0 0.0 0.00 0.00 0.00 67 1009.1
20260509041559 57 337 0.0 0.0 0.00 0.00 0.00 67 1009.1
20260509041101 57 337 0.0 0.0 0.00 0.00 0.00 67 1009.1
20260509040557 57 337 0.0 0.0 0.00 0.00 0.00 67 1009.1
20260509040058 57 337 0.0 0.0 0.00 0.00 0.00 67 1009.2
20260509035556 57 337 0.0 0.0 0.00 0.00 0.00 67 1009.3
20260509035057 57 337 0.0 0.0 0.00 0.00 0.00 67 1009.3
20260509034556 57 337 0.0 2.0 0.00 0.00 0.00 67 1009.3
20260509034056 57 337 0.0 2.0 0.00 0.00 0.00 67 1009.3
20260509033556 58 337 0.0 1.0 0.00 0.00 0.00 66 1009.2
20260509033059 58 337 0.0 1.0 0.00 0.00 0.00 66 1009.3
20260509032556 58 338 0.0 1.0 0.00 0.00 0.00 65 1009.4
20260509032054 58 338 0.0 2.0 0.00 0.00 0.00 65 1009.3
20260509031557 58 338 0.0 2.0 0.00 0.00 0.00 65 1009.4
20260509031055 58 338 0.0 2.0 0.00 0.00 0.00 65 1009.4
20260509030555 59 338 1.0 2.0 0.00 0.00 0.00 65 1009.6
20260509030055 59 338 0.0 2.0 0.00 0.00 0.00 64 1009.5
20260509025558 59 338 0.0 3.0 0.00 0.00 0.00 64 1009.4
20260509025054 59 338 1.0 3.0 0.00 0.00 0.00 64 1009.4
20260509024554 60 104 0.0 0.0 0.00 0.00 0.00 62 1009.2
20260509024054 60 104 0.0 0.0 0.00 0.00 0.00 62 1009.0
20260509023554 60 104 0.0 0.0 0.00 0.00 0.00 62 1009.0
20260509023054 60 104 0.0 0.0 0.00 0.00 0.00 61 1009.0
20260509022553 60 104 0.0 0.0 0.00 0.00 0.00 62 1009.0
20260509022053 60 104 0.0 0.0 0.00 0.00 0.00 62 1009.0
20260509021554 60 104 0.0 0.0 0.00 0.00 0.00 61 1009.0
20260509021053 61 104 0.0 0.0 0.00 0.00 0.00 61 1009.0
20260509020553 61 104 0.0 0.0 0.00 0.00 0.00 60 1009.0
20260509020052 61 104 0.0 0.0 0.00 0.00 0.00 60 1008.9
20260509015553 61 104 0.0 0.0 0.00 0.00 0.00 59 1008.9
20260509015052 61 104 0.0 0.0 0.00 0.00 0.00 57 1009.0
20260509014553 62 104 0.0 0.0 0.00 0.00 0.00 58 1009.0
20260509014053 62 104 0.0 1.0 0.00 0.00 0.00 58 1009.0
20260509013552 62 104 0.0 1.0 0.00 0.00 0.00 56 1009.0
20260509013056 63 104 0.0 2.0 0.00 0.00 0.00 56 1009.0
20260509012551 63 104 0.0 2.0 0.00 0.00 0.00 55 1009.0
20260509012051 63 104 0.0 2.0 0.00 0.00 0.00 53 1009.1
20260509011551 63 104 0.0 0.0 0.00 0.00 0.00 52 1009.0
20260509011050 63 104 0.0 1.0 0.00 0.00 0.00 51 1009.0
20260509010552 63 104 0.0 1.0 0.00 0.00 0.00 51 1009.1
20260509010051 63 104 0.0 0.0 0.00 0.00 0.00 50 1008.9
20260509005551 64 104 0.0 0.0 0.00 0.00 0.00 48 1008.8
20260509005050 64 104 0.0 0.0 0.00 0.00 0.00 47 1008.6
20260509004605 64 104 0.0 0.0 0.00 0.00 0.00 47 1008.5
20260509004052 64 104 0.0 0.0 0.00 0.00 0.00 46 1008.4
20260509003552 64 104 0.0 1.0 0.00 0.00 0.00 46 1008.3
20260509003051 64 104 0.0 2.0 0.00 0.00 0.00 46 1008.4
20260509002549 64 104 0.0 2.0 0.00 0.00 0.00 46 1008.3
20260509002049 64 104 0.0 1.0 0.00 0.00 0.00 46 1008.5
20260509001554 64 104 0.0 1.0 0.00 0.00 0.00 46 1008.5
20260509001050 65 104 0.0 1.0 0.00 0.00 0.00 45 1008.6
20260509000549 65 104 0.0 1.0 0.00 0.00 0.00 46 1008.6
20260509000049 65 104 0.0 1.0 0.00 0.00 0.00 46 1008.5
20260508235549 65 105 0.0 3.0 0.00 0.00 0.00 46 1008.5
20260508235051 65 104 0.0 3.0 0.00 0.00 0.00 46 1008.5
20260508234549 66 105 0.0 6.0 0.00 0.00 0.00 46 1008.6
20260508234048 66 159 0.0 1.0 0.00 0.00 0.00 47 1008.4
20260508233552 66 159 0.0 1.0 0.00 0.00 0.00 46 1008.5
20260508233049 66 159 0.0 1.0 0.00 0.00 0.00 44 1008.6
20260508232547 66 159 0.0 1.0 0.00 0.00 0.00 43 1008.6
20260508232053 67 159 0.0 1.0 0.00 0.00 0.00 43 1008.6
20260508231547 67 159 0.0 1.0 0.00 0.00 0.00 41 1008.5
20260508231047 67 159 0.0 3.0 0.00 0.00 0.00 40 1008.4
20260508230547 67 158 0.0 3.0 0.00 0.00 0.00 41 1008.3
20260508230051 67 158 0.0 3.0 0.00 0.00 0.00 40 1008.3
20260508225547 67 283 0.0 3.0 0.00 0.00 0.00 39 1008.4
20260508225047 67 283 0.0 2.0 0.00 0.00 0.00 39 1008.2
20260508224551 67 258 0.0 2.0 0.00 0.00 0.00 38 1008.3
20260508224046 68 258 0.0 2.0 0.00 0.00 0.00 40 1008.2
20260508223545 68 267 0.0 3.0 0.00 0.00 0.00 39 1008.2
20260508223050 68 267 1.0 5.0 0.00 0.00 0.00 39 1008.2
20260508222545 68 151 1.0 4.0 0.00 0.00 0.00 40 1008.1
20260508222045 68 163 0.0 3.0 0.00 0.00 0.00 40 1008.2
20260508221550 68 169 0.0 7.0 0.00 0.00 0.00 38 1008.2
20260508221045 68 169 1.0 7.0 0.00 0.00 0.00 39 1008.2
20260508220545 68 81 0.0 2.0 0.00 0.00 0.00 40 1008.2
20260508220044 68 81 0.0 2.0 0.00 0.00 0.00 40 1008.2
20260508215543 68 335 0.0 3.0 0.00 0.00 0.00 38 1008.1
20260508215043 68 335 0.0 3.0 0.00 0.00 0.00 38 1008.1
20260508214557 68 242 0.0 3.0 0.00 0.00 0.00 37 1008.1
20260508214041 68 47 0.0 5.0 0.00 0.00 0.00 37 1008.2
20260508213541 68 5 0.0 5.0 0.00 0.00 0.00 38 1008.2
20260508213041 68 314 0.0 3.0 0.00 0.00 0.00 38 1008.3
20260508212541 68 318 0.0 3.0 0.00 0.00 0.00 36 1008.3
20260508212039 69 280 0.0 3.0 0.00 0.00 0.00 37 1008.4
20260508211541 69 283 0.0 3.0 0.00 0.00 0.00 36 1008.4
20260508211038 69 265 0.0 3.0 0.00 0.00 0.00 36 1008.5
20260508210539 69 83 0.0 2.0 0.00 0.00 0.00 37 1008.6
20260508210038 69 82 0.0 2.0 0.00 0.00 0.00 36 1008.8
20260508205537 69 82 0.0 5.0 0.00 0.00 0.00 37 1008.9
20260508205038 69 69 0.0 5.0 0.00 0.00 0.00 34 1008.9
20260508204538 69 319 0.0 1.0 0.00 0.00 0.00 35 1009.1
20260508204037 69 327 0.0 2.0 0.00 0.00 0.00 35 1009.2
20260508203536 69 327 0.0 4.0 0.00 0.00 0.00 35 1009.2
20260508203036 69 20 0.0 8.0 0.00 0.00 0.00 35 1009.1
20260508202535 69 332 1.0 5.0 0.00 0.00 0.00 34 1009.1
20260508202034 69 318 0.0 3.0 0.00 0.00 0.00 35 1009.3
20260508201535 70 297 1.0 4.0 0.00 0.00 0.00 34 1009.3
20260508201036 70 266 1.0 4.0 0.00 0.00 0.00 33 1009.3
20260508200534 70 198 0.0 3.0 0.00 0.00 0.00 34 1009.3
20260508200040 70 215 0.0 3.0 0.00 0.00 0.00 34 1009.4
20260508195534 71 336 1.0 4.0 0.00 0.00 0.00 32 1009.6
20260508195033 71 24 1.0 4.0 0.00 0.00 0.00 31 1009.4
20260508194533 72 273 0.0 4.0 0.00 0.00 0.00 32 1009.5
20260508194035 72 259 1.0 6.0 0.00 0.00 0.00 33 1009.6
20260508193532 72 249 0.0 6.0 0.00 0.00 0.00 32 1009.6
20260508193043 73 93 0.0 4.0 0.00 0.00 0.00 33 1009.6
20260508192531 73 96 0.0 4.0 0.00 0.00 0.00 31 1009.7
20260508192033 73 117 0.0 7.0 0.00 0.00 0.00 30 1009.7
20260508191536 74 144 1.0 7.0 0.00 0.00 0.00 31 1009.7
20260508191029 73 305 1.0 6.0 0.00 0.00 0.00 30 1009.8
20260508190529 73 275 1.0 6.0 0.00 0.00 0.00 31 1010.0
20260508190046 73 269 2.0 5.0 0.00 0.00 0.00 33 1010.1